Weather History for Massena, NY

Change the Weather History Date:

Wednesday, March 20, 2013

  Actual Average Record
Temperature  
Mean Temperature 24 °F 30 °F  
Max Temperature 33 °F 39 °F 79 °F (2012)
Min Temperature 14 °F 20 °F -8 °F (1956)
Degree Days  
Heating Degree Days 41 35  
Month to date heating degree days 748 790  
Since 1 July heating degree days 6198 6777  
Cooling Degree Days 0 0  
Month to date cooling degree days 0 0  
Year to date cooling degree days 0 0  
Moisture  
Dew Point 22 °F    
Average Humidity 73    
Maximum Humidity 92    
Minimum Humidity 53    
Precipitation  
Precipitation T in 0.07 in 0.59 in (2003)
Month to date precipitation 0.36 1.30  
Year to date precipitation 2.61 5.25  
Sea Level Pressure  
Sea Level Pressure 29.70 in    
Wind  
Wind Speed 11 mph (SW)    
Max Wind Speed 22 mph    
Max Gust Speed 30 mph    
Visibility 5 miles    
Events Snow    
T = Trace of Precipitation, MM = Missing Value Source: NWS Daily Summary

Daily Weather History Graph

Daily Weather History Graph

Search for Another Location

Airport:

Trip Planner

Search our weather history database for the weather conditions in past years. The results will help you decide how hot, cold, wet, or windy it might be!

Date:

Astronomy

Mar. 20, 2013 Rise Set
Actual Time 7:02 AM EDT 7:12 PM EDT
Civil Twilight 6:32 AM EDT 7:41 PM EDT
Nautical Twilight 5:58 AM EDT 8:15 PM EDT
Astronomical Twilight 5:23 AM EDT 8:51 PM EDT
Moon 12:31 PM EDT 2:54 AM EDT
Length of Visible Light 13h 08m
Length of Day
12h 10m
First Quarter, 59% of the Moon is Illuminated
Mar 20
First Quarter
Mar 27
Full
Apr 3
Last Quarter
Apr 10
New
Apr 18
First Quarter

Hourly Weather History & Observations

Time (EDT) Temp. Windchill Dew Point Humidity Pressure Visibility Wind Dir Wind Speed Gust Speed Precip Events Conditions
12:53 AM 27.0 °F 18.0 °F 23.0 °F 85% 29.75 in 9.0 mi SW 9.2 mph - N/A   Overcast
1:53 AM 27.0 °F 17.3 °F 21.9 °F 81% 29.75 in 10.0 mi WSW 10.4 mph - N/A   Overcast
2:53 AM 25.0 °F 17.1 °F 19.9 °F 81% 29.75 in 9.0 mi WSW 6.9 mph - N/A   Partly Cloudy
3:53 AM 19.9 °F 13.4 °F 17.1 °F 89% 29.75 in 7.0 mi SW 4.6 mph - N/A   Clear
4:53 AM 19.0 °F 9.0 °F 16.0 °F 88% 29.75 in 7.0 mi SW 8.1 mph - N/A   Clear
5:53 AM 17.1 °F 7.6 °F 14.0 °F 88% 29.76 in 8.0 mi SW 6.9 mph - N/A   Scattered Clouds
6:53 AM 18.0 °F 9.8 °F 15.1 °F 88% 29.76 in 7.0 mi SW 5.8 mph - N/A   Clear
7:53 AM 18.0 °F 9.8 °F 16.0 °F 92% 29.76 in 7.0 mi SSW 5.8 mph - N/A   Overcast
8:53 AM 23.0 °F 13.1 °F 17.1 °F 78% 29.75 in 10.0 mi SW 9.2 mph - N/A   Mostly Cloudy
9:53 AM 25.0 °F 13.6 °F 19.0 °F 78% 29.74 in 10.0 mi SW 12.7 mph - N/A   Scattered Clouds
10:21 AM 26.6 °F 16.2 °F 19.4 °F 74% 29.72 in 10.0 mi WSW 11.5 mph - N/A   Mostly Cloudy
10:53 AM 28.0 °F 18.6 °F 21.0 °F 75% 29.73 in 4.0 mi WSW 10.4 mph - 0.00 in Snow Light Snow
11:02 AM 26.6 °F 20.0 °F 21.2 °F 80% 29.71 in 2.0 mi SW 5.8 mph - 0.00 in Snow Light Snow
11:13 AM 28.4 °F 20.4 °F 21.2 °F 74% 29.71 in 3.0 mi WSW 8.1 mph - 0.00 in Snow Light Snow
11:53 AM 28.9 °F 21.1 °F 21.9 °F 75% 29.72 in 10.0 mi West 8.1 mph - 0.00 in   Overcast
12:43 PM 28.4 °F 18.5 °F 21.2 °F 74% 29.70 in 1.8 mi WSW 11.5 mph - 0.00 in Snow Light Snow
12:53 PM 30.0 °F 21.7 °F 23.0 °F 75% 29.72 in 2.0 mi WSW 9.2 mph - 0.00 in Snow Light Snow
1:02 PM 30.2 °F 21.3 °F 21.2 °F 69% 29.69 in 4.0 mi WSW 10.4 mph - 0.00 in Snow Light Snow
1:53 PM 30.9 °F 21.7 °F 23.0 °F 72% 29.70 in 7.0 mi WSW 11.5 mph - 0.00 in Snow Light Snow
2:00 PM 30.2 °F 21.3 °F 23.0 °F 75% 29.68 in 4.0 mi WSW 10.4 mph - 0.00 in Snow Light Snow
2:06 PM 30.2 °F 21.9 °F 24.8 °F 80% 29.68 in 1.8 mi WSW 9.2 mph - 0.00 in Snow Light Snow
2:13 PM 30.2 °F 20.8 °F 24.8 °F 80% 29.68 in 0.8 mi WSW 11.5 mph - 0.00 in Snow Light Snow
2:23 PM 30.2 °F 21.9 °F 24.8 °F 80% 29.68 in 1.5 mi SW 9.2 mph - 0.00 in Snow Light Snow
2:27 PM 30.2 °F 19.8 °F 24.8 °F 80% 29.68 in 3.0 mi SW 13.8 mph 20.7 mph 0.00 in Snow Light Snow
2:53 PM 30.9 °F 21.7 °F 25.0 °F 79% 29.69 in 3.0 mi WSW 11.5 mph 16.1 mph 0.00 in Snow Light Snow
3:01 PM 32.0 °F 22.5 °F 24.8 °F 75% 29.67 in 6.0 mi WSW 12.7 mph - 0.00 in Snow Light Snow
3:17 PM 32.0 °F 23.6 °F 26.6 °F 80% 29.67 in 2.5 mi WSW 10.4 mph - 0.00 in Snow Light Snow
3:39 PM 32.0 °F 22.1 °F 26.6 °F 80% 29.67 in 1.2 mi West 13.8 mph - 0.00 in Snow Light Snow
3:50 PM 32.0 °F 23.6 °F 26.6 °F 80% 29.67 in 2.0 mi WSW 10.4 mph - 0.00 in Snow Light Snow
3:53 PM 32.0 °F 23.6 °F 27.0 °F 82% 29.69 in 4.0 mi WSW 10.4 mph - 0.00 in Snow Light Snow
4:01 PM 32.0 °F 23.6 °F 26.6 °F 80% 29.67 in 2.5 mi WSW 10.4 mph - 0.00 in Snow Light Snow
4:07 PM 33.8 °F 25.3 °F 26.6 °F 75% 29.67 in 3.0 mi WSW 11.5 mph - 0.00 in Snow Light Snow
4:32 PM 32.0 °F 22.5 °F 24.8 °F 75% 29.67 in 1.8 mi West 12.7 mph - 0.00 in Snow Light Snow
4:37 PM 32.0 °F 19.5 °F 24.8 °F 75% 29.67 in 0.8 mi SW 21.9 mph 27.6 mph 0.00 in Snow Light Snow
4:51 PM 32.0 °F 21.2 °F 24.8 °F 75% 29.67 in 1.5 mi SW 16.1 mph 24.2 mph 0.00 in Snow Light Snow
4:53 PM 32.0 °F 20.5 °F 25.0 °F 75% 29.69 in 2.0 mi SW 18.4 mph 24.2 mph 0.00 in Snow Light Snow
5:00 PM 32.0 °F 22.1 °F 24.8 °F 75% 29.67 in 4.0 mi SW 13.8 mph 23.0 mph 0.00 in Snow Light Snow
5:23 PM 32.0 °F 21.2 °F 24.8 °F 75% 29.67 in 1.8 mi SW 16.1 mph 26.5 mph 0.00 in Snow Light Snow
5:29 PM 30.2 °F 20.2 °F 24.8 °F 80% 29.68 in 0.8 mi SW 12.7 mph 25.3 mph 0.00 in Snow Light Snow
5:36 PM 30.2 °F 19.8 °F 26.6 °F 86% 29.68 in 1.5 mi WSW 13.8 mph - 0.00 in Snow Light Snow
5:39 PM 30.2 °F 20.2 °F 26.6 °F 86% 29.68 in 3.0 mi SW 12.7 mph 21.9 mph N/A Snow Light Snow
5:53 PM 30.9 °F 20.2 °F 25.0 °F 79% 29.70 in 10.0 mi SW 15.0 mph 20.7 mph 0.00 in   Overcast
6:53 PM 32.0 °F 20.8 °F 21.9 °F 66% 29.71 in 7.0 mi SW 17.3 mph 23.0 mph 0.00 in Snow Light Snow
7:05 PM 30.2 °F 18.1 °F 23.0 °F 75% 29.70 in 1.8 mi SW 18.4 mph 26.5 mph 0.00 in Snow Light Snow
7:14 PM 30.2 °F 20.2 °F 23.0 °F 75% 29.70 in 3.0 mi SW 12.7 mph 26.5 mph 0.00 in Snow Light Snow
7:53 PM 30.9 °F 20.7 °F 21.9 °F 69% 29.72 in 10.0 mi SW 13.8 mph 21.9 mph 0.00 in   Overcast
8:53 PM 30.0 °F 19.5 °F 21.9 °F 72% 29.73 in 9.0 mi WSW 13.8 mph 20.7 mph 0.00 in   Overcast
9:53 PM 30.9 °F 21.7 °F 19.0 °F 61% 29.73 in 10.0 mi WSW 11.5 mph 18.4 mph N/A   Overcast
10:53 PM 30.9 °F 21.2 °F 17.1 °F 57% 29.72 in 10.0 mi WSW 12.7 mph 23.0 mph N/A   Overcast
11:53 PM 30.0 °F 20.5 °F 16.0 °F 56% 29.72 in 10.0 mi WSW 11.5 mph 21.9 mph N/A   Overcast